Погода в Романовке

Погода в Романовке : погода сейчас, прогноз погоды и архив. Всё, что Вы хотите узнать о погоде в Романовке!

Поиск расширенной информации на нашем сайте:

Другие новости

Новости СМИ2

Главная страница сайта

Новости сайта

02.10.2013

Напоминаем, что на нашем новом сайте вы можете получить высокодетализированные прогнозы погоды по пунктам России, СНГ и мира (включающие важные для авиации метеовеличины, такие как направление и скорость ветра, видимость, явления погоды, количество и форма облачности, нижняя и верхняя граница облачности), а также ознакомиться с разнообразными материалами по авиационной метеорологии и подборкой полезных ссылок на эту тему.

Сайт Метеоцентр.Азия посвящён разработке технологий оптимизации авиаметеорологического обслуживания, включая проектирование и перспективное создание нескольких автоматизированных авиаметеорологических систем:
- система выпуска высокодетальных прогностических карт явлений погоды для нижнего воздушного пространства по России и ближнему зарубежью;
- система верификации прогнозов TAF (выпускаемых синоптиками официальных АМСГ РФ и ближнего зарубежья) и AUTOTAF (выпускаемых сайтом Метеоцентр.Азия) - выявление ошибок, онлайн-сопоставление с фактической погодой METAR, автоматическое внесение коррективов в прогнозы при резком отклонении фактической погоды от прогноза, подсчёт оправдываемости прогнозов по элементам и в целом;
- система обработки, анализа и отображения авиаметеорологической информации для применения провайдерами метеорологической информации.


Погода в Романовке - сегодня

Время (UTC), дата Ветер
(°,м/с) 
Видим.   Явления Облачность Т
(°С)
Тd
(°С)
f(%) Тe
(°С)
Pmin
(гПа)
dP
(гПа)
Po
(мм)
O2
(г/м3)
Тmin Tmax R s Состояние
почвы
21 19.06.17 тихо ()   0500 м  туман  ?/?  
+4.9 +4.7 99 +5  1017.8  0.7  683  269           
00 20.06.17 тихо ()   20000 м  {туман}  3/0 верхняя 
[Ci fib]
+14 +9.5 74 +16  1014.2  0.2  683  260  +4.9        влажная 
03 20.06.17 060 (СВ) 20000 м    6/3 600 м кучево-дожд., средняя, верхняя 
[Cb calv|Ac lent|Ci fib]
+23.1 +8.8 40 +25  1010.4  -0.5  682  252           
06 20.06.17 030 (СВ) 20000 м    6/4 600 м кучево-дожд., верхняя 
[Cb cap|Ci fib]
+26.3 +6.9 29 +26  1007.5  -1.7  681  249           
09 20.06.17 090 (В) 20000 м    4/4 600 м кучево-дожд. 
[Cb cap]
+26.8 +4.8 24 +27  1006.4  -0.9  680  249           
12 20.06.17 210 (ЮЗ) 20000 м  слаб. ливневой дождь  10/10 600 м кучево-дожд. 
[Cb cap]
+17.8 +11.6 67 +23  1010.8  1.3  681  255    +27  0.5     
15 20.06.17 350 (С) н/о  {гроза}  3/3 600 м кучево-дожд., верхняя 
[Cb cap|Ci fib]
+12.2 +9.7 85 +16  1013.4  0.4  682  261           
18 20.06.17 320 (СЗ) н/о  туман на расстоянии{гроза}  1/0 верхняя 
[Ci fib]
+8.6 +7.2 91 +10  1015.3  0.4  682  265           
21 20.06.17 тихо ()   0500 м  туман  ?/?  
+6.6 +6.2 97 +7  1017.2  0.9  683  267           
00 21.06.17 010 (С) 20000 м  {туман}  3/0 верхняя 
[Ci fib]
+14.9 +9 68 +18  1013.9  683  259  +6.3        сухая 
03 21.06.17 040 (СВ) 20000 м    5/3 600 м кучево-дожд., верхняя 
[Cb calv|Ci fib]
+24.1 +10.6 43 +28  1009.8  -0.6  682  251           
06 21.06.17 070 (В) 20000 м    5/5 600 м кучево-дожд. 
[Cb cap]
+27.2 +6.8 27 +27  1006.9  -1.8  681  248           
09 21.06.17 120 (ЮВ) 20000 м    5/5 600 м кучево-дожд. 
[Cb cap]
+27.6 +5.3 24 +28  1005.6  -1  680  248           
12 21.06.17 150 (ЮВ) 20000 м    3/3 600 м кучево-дожд., верхняя 
[Cb cap|Ci fib]
+24.3 +7.8 35 +25  1006.8  0.1  680  250    +28.5       
15 21.06.17 040 (СВ) н/о    1/1 1000 м 
[Sc diur, vesp]
+14.1 +9.6 74 +18  1011.3  0.8  681  259           
18 21.06.17 190 (Ю) н/о    3/3 1000 м 
[Sc diur, vesp]
+8.7 +6.9 88 +10  1013.9  0.3  681  265           
21 21.06.17 тихо ()   20000 м  туман на расстоянии  ясно 
+7.1 +5.8 91 +7  1015.3  0.6  682  267           
00 22.06.17 тихо ()   20000 м    ясно 
+17.2 +9.6 61 +20  1011.6  0.3  682  257  +6.5        сухая 
03 22.06.17 300 (СЗ) 20000 м    3/3 1000 м 
[Cu med, cong]
+26.7 +7.8 30 +27  1007.4  -0.8  681  249           
06 22.06.17 150 (ЮВ) 20000 м    4/4 1000 м 
[Cu med, cong]
+29.6 +5.9 22 +30  1004.9  -1.4  680  246           
09 22.06.17 тихо ()   20000 м    4/4 600 м кучево-дожд. 
[Cb calv]
+29.5 +6.4 23 +30  1004.1  -0.7  680  246           
12 22.06.17 020 (С) 20000 м    5/5 600 м кучево-дожд. 
[Cb cap]
+24.1 +10.4 42 +28  1007  680  250    +30.8       
15 22.06.17 330 (СЗ) н/о    1/1 1000 м 
[Sc diur, vesp]
+14.9 +9.8 71 +19  1010.8  0.5  681  258           
18 22.06.17 тихо ()   н/о    ясно 
+10.1 +8.1 87 +11  1013.2  0.4  681  263           
21 22.06.17 тихо ()   20000 м    ясно 
+7.8 +6.6 92 +8  1014.5  0.3  681  266           
Время (UTC), дата Ветер
(°,м/с) 
Видим.   Явления Облачность Т
(°С)
Тd
(°С)
f(%) Тe
(°С)
Pmin
(гПа)
dP
(гПа)
Po
(мм)
O2
(г/м3)
Тmin Tmax R s Состояние
почвы

Для получения пояснительной информации подведите курсор к названию столбца.

ПОГОДА в Романовке - архив

Всё, что Вы хотите узнать о погоде в Романовке - удобно и подробно!

Выберите нужную дату (начиная с 1 января 2015* года) и нажмите кнопку "Найти".
Будут отображены архивные сводки погоды по пункту Романовка, начиная с указанной даты.


Отображать данные в формате CSV (для использования в таблицах Excel)


Внимание! Наш архив погоды предназначен исключительно для личного некоммерческого использования в познавательных целях. Если Вам необходимы официальные справки о состоянии погоды (для производственных, юридических, коммерческих и т.п. целей), обращайтесь в органы Росгидромета.

*Примечание: данная дата относится к архиву по метеостанциям СССР (Россия, СНГ, Балтия).
Архив по метеостанциям Зарубежной Европы и Азии (кроме Китая) хранится 10 дней, по другим регионам земного шара (Китай, Африка, Америка, Австралия, Океания) - 1 день.

Романовка - район местоположения метеостанции


Название, широта, долгота, высота метеостанции:
Романовка 53.2°ш. 112.8°д. 923 м над ур. моря [Российская Федерация]

Дополнительная информация

В oтличие oт бoльшинства пoгoдных сайтoв мы публикуем пoдрoбную метеoинфoрмацию в детальнoм прoфессиoнальнoм фoрмате.

Характеристики температуры и влажнoсти вoздуха измеряются на высoте 2 м в тени вдали oт зданий и деревьев.
Скoрoсть ветра измеряется на высoте 10 м (на урoвне рoста челoвека скoрoсть ветра ниже в 1.5-2 раза). Если метеoстанция нахoдится в гoрoде или в лесу, тo скoрoсть ветра занижена на 2-4 м/с пo сравнению с oткрытым местoм. Скoрoсть ветра над акватoриями крупных рек и oзёр, а также на вершинах хoлмoв на 2-5 м/с выше, чем в oбычных услoвиях.
Атмoсфернoе давление в разных тoчках местнoсти мoжет значительнo oтличаться oт давления на метеoстанции, в зависимoсти oт услoвий рельефа (при пoдъёме на 10 м давление пoнижается примернo на 1 мм рт.ст.).